Regional Weather Roundup
Issued by NWS Goodland, KS

Home | Current Version | Previous Version | Text Only | Print | Product List | Glossary Off
Versions: 1 2 3 4 5 6 7 8 9 10 11 12 13 14 15 16 17 18 19 20 21 22 23 24 25 26 27 28 29 30 31 32 33 34 35 36 37 38 39 40 41 42 43 44 45 46 47 48 49 50

000
ASUS43 KGLD 291059
RWRGLD

GOODLAND FORECAST AREA HOURLY WEATHER ROUNDUP
NATIONAL WEATHER SERVICE GOODLAND KS
500 AM MDT FRI JUL 29 2016

...OFFICIAL OBSERVATIONS...

CITY           SKY/WX    TMP DP  RH WIND       PRES   REMARKS
GOODLAND KS    CLOUDY    61  60  97 SW5       30.09F
HILL CITY KS   MOCLDY    66  65  96 N3        30.05S FOG
IMPERIAL NEB   CLEAR     62  60  93 NW6       30.12S
MCCOOK NEB     CLEAR     58  57  97 W5        30.08S
AKRON CO       LGT RAIN  60  56  86 S9        30.16F
BURLINGTON CO  CLOUDY    61  58  90 CALM      30.14F
LIMON CO       CLOUDY    57  56  96 N5        30.23R
$$

...UNOFFICIAL OBSERVATIONS...

CITY           SKY/WX    TMP DP  RH WIND       PRES   REMARKS
LENORA KS        N/A     63  32  31 MISG        N/A
NORTON KS      PTCLDY    63  59  88 NW6       30.06R FOG
SHARON SPRINGS   N/A     61  59  94 CALM        N/A
KIT CARSON CO    N/A     60  56  87 CALM        N/A
YUMA CO          N/A     61  59  92 NW5         N/A
$$



USA.gov is the U.S. government's official web portal to all federal, state and local government web resources and services.